Powrót do katalogu

STARLINK-36951

AktywnyŁącznośćVLEO
NORAD 67990·PAYLOAD·🇺🇸 United States

Wystrzelony Feb 27, 2026 z Vandenberg Space Force Base

Loading…

Następne Przeloty (najbliższe 24 godziny)

TLE

ŚwieżeSource: CelesTrak SupGP

Epoka: Sep 14, 2026, 23:18 UTC

1 67990C 26039E   26257.97131944  .00042756  00000+0  15483-2 0  2574
2 67990  43.0005  60.1581 0001644 274.4636 295.5794 15.27562763    19

Śledź STARLINK-36951 w czasie rzeczywistym z AllMySat

Download on the App Store